Regional Weather Roundup
Issued by NWS State College, PA

Home | Current Version | Previous Version | Text Only | Print | Product List | Glossary On
Versions: 1 2 3 4 5 6 7 8 9 10 11 12 13 14 15 16 17 18 19 20 21 22 23 24 25 26 27 28 29 30 31 32 33 34 35 36 37 38 39 40 41 42 43 44 45 46 47 48 49 50
000
ASUS41 KCTP 031810
RWRCTP

REGIONAL WEATHER ROUNDUP
NATIONAL WEATHER SERVICE STATE COLLEGE PA
200 PM EDT WED JUN 03 2015

Note: "fair" indicates few or no clouds below 12,000 feet with no
significant weather and/or obstructions to visibility.

* = STATION THAT DOES NOT REPORT PRECIPITATION /E.G. RAIN...SNOW...ETC/
    THUNDER OR FOG.

PAZ002>004-007>009-013>016-020>023-029>032-031900-
WESTERN PENNSYLVANIA

CITY           SKY/WX    TMP DP  RH WIND       PRES   REMARKS
ERIE           SUNNY     65  49  56 NE17      30.13F
MEADVILLE      PTSUNNY   68  53  58 VRB6      30.14F
FRANKLIN*      CLOUDY    64  52  63 SE13      30.16F
NEW CASTLE     CLOUDY    68  58  70 E10G16    30.14S
BEAVER COUNTY  CLOUDY    66  55  68 E5        30.13F
BUTLER*        CLOUDY    64  54  68 SE10      30.15F
PITTSBURGH INT CLOUDY    68  54  60 E9        30.12F
PITTSBURGH     CLOUDY    68  53  58 E7        30.11F
INDIANA*       CLOUDY    63  55  77 E10G17    30.20F
LATROBE        CLOUDY    66  55  68 E12G17    30.15F
WASHINGTON CO* CLOUDY    70  55  60 CALM      30.13S
$$

PAZ004>006-010>012-017>019-024>028-033>037-041-042-045-046-049>053-031900-
CENTRAL PENNSYLVANIA

CITY           SKY/WX    TMP DP  RH WIND       PRES   REMARKS
BRADFORD       SUNNY     67  45  45 SE10      30.17F
DUBOIS         PTSUNNY   63  50  62 SE9       30.18F
CLEARFIELD     PTSUNNY   66  50  56 SE8       30.19F
JOHNSTOWN      CLOUDY    56  52  86 SE9       30.18F
ALTOONA        CLOUDY    58  52  80 E8        30.20F
STATE COLLEGE  PTSUNNY   61  50  67 SE6       30.20F
WILLIAMSPORT   PTSUNNY   69  50  50 VRB7      30.18F
SELINSGROVE    PTSUNNY   65  54  67 S9        30.21F
FT INDIANTOWN  CLOUDY    62  53  72 E8        30.21F
CAPITAL CITY   CLOUDY    65  52  62 SE10      30.20F
HARRISBURG     CLOUDY    65  53  65 SE12      30.19F
YORK           CLOUDY    63  53  70 E7        30.20F
$$

PAZ038>040-043-044-047-048-054-055-060>062-067>071-031900-
EASTERN PENNSYLVANIA

CITY           SKY/WX    TMP DP  RH WIND       PRES   REMARKS
SCRANTON       SUNNY     69  48  47 SE3       30.20F
MOUNT POCONO   MOSUNNY   62  47  57 CALM      30.21F
ALLENTOWN      PTSUNNY   67  52  58 VRB7      30.21F
QUAKERTOWN*    CLOUDY    63  54  72 NE5       30.23F
READING        PTSUNNY   63  53  70 NE8       30.21S
LANCASTER      CLOUDY    63  53  70 E8        30.20F
COATESVILLE    CLOUDY    63  54  72 E6        30.21F
POTTSTOWN      CLOUDY    63  53  70 VRB6      30.22F
BLUE BELL      CLOUDY    64  54  68 E7        30.21F
DOYLESTOWN     CLOUDY    63  52  67 CALM      30.21F
WILLOW GROVE   NOT AVBL
NORTH PHILA    CLOUDY    65  49  56 SE8       30.22F
PHILADELPHIA   CLOUDY    68  52  56 E13       30.21F
$$



USA.gov is the U.S. government's official web portal to all federal, state and local government web resources and services.